Regional Weather Roundup
Issued by NWS

Home | Current Version | Previous Version | Text Only | Print | Product List | Glossary Off
Versions: 1 2 3 4 5 6 7 8 9 10 11 12 13 14 15 16 17 18 19 20 21 22 23 24 25 26 27 28 29 30 31 32 33 34 35 36 37 38 39 40 41 42 43 44 45 46 47 48 49 50

000
ASUS43 KIND 270309
RWRIN

WEATHER ROUNDUP FOR INDIANA
NATIONAL WEATHER SERVICE INDIANAPOLIS IN
1000 PM EST THU FEB 26 2015

NOTE: "FAIR" INDICATES FEW OR NO CLOUDS BELOW 12,000 FEET WITH NO
SIGNIFICANT WEATHER AND/OR OBSTRUCTIONS TO VISIBILITY.

* - STATION DOES NOT REPORT WEATHER SUCH AS PRECIPITATION OR FOG.

+ - STATION NOT QUALITY CONTROLLED BY THE NATIONAL WEATHER SERVICE.
    USE DATA WITH CAUTION...ESPECIALLY DEWPOINT AND RELATIVE
    HUMIDITY OBSERVATIONS.

INZ001>003-010>013-019-020-270400-
NORTHWEST INDIANA

CITY           SKY/WX    TMP DP  RH WIND       PRES   REMARKS
GARY /AIRPORT/ CLEAR     13  -4  46 W10       30.40R WCI   0
KNOX *+          N/A     10   0  61 CALM      30.36R
LA PORTE +     LGT SNOW  11   8  89 CALM      30.36R
MICHIGAN CITY+ MOCLDY    10   5  79 NE3       30.37R
MONTICELLO +   MOCLDY     1  -2  85 NW5       30.37R WCI  -8
RENSSELAER +   PTCLDY     9   7  92 W3        30.39R
VALPARAISO     LGT SNOW  14  10  84 NW3       30.36R FOG

$$

LMZ046-743>745-270400-
SOUTHERN LAKE MICHIGAN

STATION/POSITION TIME  TEMP WIND        PRES
                       AIR  DIR/SP/G
                 (UTC) (F)  (DEG/KT/KT) (MB)
MICHIGAN CITY    0300   13  310/  8/  9   N/A

$$

INZ004-005-014>016-021>024-270400-
NORTH CENTRAL INDIANA

CITY           SKY/WX    TMP DP  RH WIND       PRES   REMARKS
GOSHEN         CLEAR      6  -6  57 N3        30.33R
LOGANSPORT +   CLEAR     10   1  67 NW5       30.37R WCI   2
ROCHESTER +    CLEAR     10   3  72 NW5       30.35R WCI   2
SOUTH BEND     CLEAR      2  -4  76 W6        30.35R WCI  -9
WARSAW +       CLEAR      9  -4  56 CALM      30.33R

$$

INZ006>009-017-018-025>027-270400-
NORTHEAST INDIANA

CITY           SKY/WX    TMP DP  RH WIND       PRES   REMARKS
ANGOLA *+      CLEAR      0  -6  78 CALM      30.30R
AUBURN +       PTCLDY    12   0  57 CALM      30.33R
FORT WAYNE     MOCLDY    11   1  64 NW8       30.33R WCI  -1
HUNTINGTON +   CLEAR      8  -8  49 NW5       30.33R WCI  -1

$$

INZ028-029-035-036-043>045-051>053-270400-
WEST CENTRAL INDIANA

CITY           SKY/WX    TMP DP  RH WIND       PRES   REMARKS
CRAWFORDSVL +  PTCLDY     4  -4  68 W5        30.37R WCI  -5
GREENCASTLE +  CLEAR     10   1  67 NW3       30.37R
LAFAYETTE      CLOUDY    11   5  77 NW5       30.39R WCI   3
TERRE HAUTE    CLEAR     13   4  67 N5        30.40R WCI   5

$$

INZ030>032-037>040-046>048-054>057-064-065-270400-
CENTRAL INDIANA

CITY           SKY/WX    TMP DP  RH WIND       PRES   REMARKS
CP ATTERBURY + CLOUDY    12   9  85 NW5       30.36R WCI   4
COLUMBUS       MOCLDY     7   3  85 NW3       30.35R
FRANKFORT +    CLEAR      5   0  78 W3        30.37R
GREENWOOD *+   CLOUDY    16   7  67 N9        30.35R WCI   4
INDIANAPOLIS   PTCLDY    12   3  67 N10       30.35R WCI  -1
-EAGLE CREEK   CLEAR     10   3  73 NW7       30.35R WCI  -1
KOKOMO *+      CLEAR      7  -2  66 NW7       30.35R WCI  -5
MARION +       CLEAR      7  -3  65 NW5       30.34R WCI  -2
MT COMFORT *+  CLOUDY    12   0  57 N9        30.34R WCI   0
SHELBYVILLE    CLOUDY    11   5  77 NW7       30.33R WCI   0
ZIONSVILLE +   CLEAR      7   0  73 NW3       30.35R

$$

INZ033-034-041-042-049-050-058-059-270400-
EAST CENTRAL INDIANA

CITY           SKY/WX    TMP DP  RH WIND       PRES   REMARKS
MUNCIE         CLOUDY    10   6  84 NW8       30.32R WCI  -2

$$

INZ060-061-067>069-081>083-085>088-270400-
SOUTHWEST INDIANA

CITY           SKY/WX    TMP DP  RH WIND       PRES   REMARKS
EVANSVILLE     CLEAR     21   9  59 NW9       30.40R WCI  11
HUNTINGBURG *+ CLEAR     21  16  79 NW10      30.37R WCI  10
WASHINGTON +   MOCLDY    14   8  75 NW7       30.38R WCI   4

$$

INZ062-063-066-070>080-084-089>092-270400-
SOUTH CENTRAL AND SOUTHEAST INDIANA

CITY           SKY/WX    TMP DP  RH WIND       PRES   REMARKS
BLOOMINGTON    CLOUDY    17  11  77 N7        30.35R WCI   8
NORTH VERNON + CLEAR     14   5  67 N3        30.33R
SEYMOUR +      CLEAR     12   5  73 CALM      30.36R

$$



USA.gov is the U.S. government's official web portal to all federal, state and local government web resources and services.